Wind_Speed
5 5 4 4 4 4 4 4 4 4 4 5 5 5 6 6 7 7 8 8 8 8 9 9 9 8 8 8 8 8 8 9 10 10 9 9 8 9 8 7 6 6 7 7 8 8 8 8 8 9 9 9 9 9 9 9 9 9 8 7 6 4 2 2 5 7 9 10 11 13 16 18 18 18 20 21 20 20 18 13 13 15 15 15 15 15 16 16
6 6 6 6 6 6 6 6 6 6 6 7 7 8 8 9 9 9 9 9 10 10 10 10 10 9 9 9 9 9 9 10 10 10 10 10 8 7 7 7 7 8 9 9 9 10 9 9 8 9 9 9 9 9 9 8 9 9 9 7 6 5 4 3 5 7 11 12 13 14 16 17 18 18 20 22 20 20 18 14 12 13 11 11 13 16 18 20
8 8 8 8 8 8 8 8 8 8 8 9 9 10 10 11 11 11 11 11 11 11 11 11 11 11 11 11 10 10 10 10 11 12 11 9 7 6 8 9 10 10 10 10 10 10 10 9 8 8 8 9 9 9 9 9 10 10 10 8 6 6 5 4 7 8 11 13 13 14 16 16 16 17 19 21 21 18 16 13 13 12 9 8 11 15 18 20
10 10 10 10 10 10 10 9 10 10 10 11 11 12 12 13 13 13 12 12 12 12 12 12 12 12 12 12 12 11 10 10 11 10 9 8 9 9 10 11 11 10 9 9 9 9 9 9 8 8 9 9 10 10 10 11 12 11 10 9 8 9 8 5 8 9 11 14 15 15 17 16 15 16 17 19 21 17 12 12 13 13 11 9 10 14 16 17
12 12 12 12 12 12 12 12 12 12 13 13 14 14 14 14 14 14 14 14 14 14 14 14 14 13 13 13 12 12 11 10 9 8 9 11 12 11 11 11 10 9 9 9 9 9 10 10 10 11 11 11 12 12 12 12 14 14 12 11 11 12 11 9 10 12 13 15 16 16 17 17 16 15 15 17 18 16 13 12 13 14 14 14 13 13 14 15
15 15 14 14 14 14 14 14 14 14 15 15 16 16 16 16 16 15 15 15 15 15 15 14 14 14 13 13 12 11 10 9 9 9 11 12 12 11 11 10 10 10 9 10 10 11 12 12 13 14 14 13 13 13 13 14 15 16 15 14 13 14 15 14 15 15 16 16 16 17 17 17 16 15 15 14 13 13 13 14 15 15 15 14 14 13 12 12
17 17 16 16 16 16 16 16 17 17 17 17 17 17 17 17 17 17 16 16 16 16 16 15 15 15 14 13 12 12 9 8 11 11 11 12 12 11 11 11 12 12 12 12 13 13 13 14 14 15 16 15 14 14 14 16 17 19 18 16 15 17 18 18 18 17 17 17 16 17 18 16 15 17 17 11 8 10 12 15 18 16 14 11 10 11 11 11
19 18 18 18 18 18 19 19 19 19 19 19 19 18 18 18 18 18 17 17 17 17 17 16 15 15 15 14 13 13 10 9 12 12 11 12 12 12 13 13 14 14 14 14 14 15 14 15 15 16 17 16 17 16 16 17 18 19 19 18 18 19 19 19 19 19 18 17 16 17 18 14 12 18 17 9 7 11 13 17 19 17 15 13 12 13 13 13
20 20 20 20 20 21 21 21 20 20 20 20 20 20 20 19 19 19 18 17 17 17 17 17 16 16 16 15 16 14 11 11 12 12 13 14 14 14 15 15 15 15 15 15 16 16 15 16 17 18 18 18 19 18 17 18 18 18 19 20 20 19 19 18 18 17 15 16 15 17 17 12 11 17 15 8 10 14 16 18 18 17 17 16 17 16 16 15
22 22 22 22 22 22 22 22 21 21 21 21 21 21 21 20 20 19 18 18 17 18 18 18 17 17 17 17 18 16 12 13 14 14 15 15 16 16 15 15 15 16 16 16 17 17 17 17 17 18 19 19 19 18 17 18 18 19 20 20 18 18 19 18 17 15 13 15 14 15 16 12 13 15 12 11 15 19 19 18 18 18 17 17 18 18 16 15
23 23 23 23 23 23 23 23 22 22 22 22 22 21 21 21 20 20 19 18 18 18 19 19 18 19 19 19 19 17 15 16 15 15 16 16 17 16 16 17 17 17 18 18 18 18 18 18 18 19 18 19 19 18 19 19 19 20 20 21 19 19 19 16 16 14 14 14 12 14 16 14 13 13 14 17 20 22 20 18 17 16 15 16 17 17 17 16
24 24 24 24 24 24 24 23 23 23 23 23 22 22 22 21 21 20 20 19 19 19 19 19 19 19 20 20 20 18 18 17 17 17 17 17 18 18 19 19 18 19 19 20 20 19 19 18 19 18 18 19 19 18 19 18 18 19 22 23 21 20 18 15 13 12 14 15 13 14 14 13 14 15 17 21 23 23 22 19 16 14 13 16 18 19 19 20
25 25 25 25 25 24 24 24 23 23 23 23 23 22 22 22 22 21 21 20 20 20 20 20 21 21 22 22 20 20 20 19 19 19 19 19 20 21 21 21 21 21 21 21 20 19 19 18 18 18 18 19 19 19 19 19 19 20 22 23 21 21 19 15 13 14 16 16 13 13 14 15 16 18 20 22 24 24 22 17 13 12 14 18 21 22 22 23
26 26 26 25 24 24 23 23 23 23 23 23 23 23 23 22 22 22 22 21 22 22 22 22 22 23 24 23 22 22 22 22 22 22 22 22 22 22 21 21 21 20 20 20 19 19 19 19 18 18 19 19 19 20 21 20 20 20 20 20 20 22 22 18 16 18 17 15 15 16 18 18 18 19 22 23 24 25 20 13 11 14 18 21 23 24 24 24
26 26 25 25 24 23 23 23 23 23 23 23 23 23 24 24 23 23 24 24 24 24 24 24 25 26 26 25 25 25 24 24 24 23 23 22 21 21 21 21 21 21 21 21 21 21 21 21 20 19 19 19 19 21 21 20 20 20 20 20 19 21 23 21 19 19 17 17 19 19 18 19 20 22 23 23 22 20 16 12 14 19 22 23 24 25 27 26
26 26 25 25 24 24 24 24 24 24 24 24 25 25 25 25 25 25 26 26 26 26 26 26 26 27 27 26 25 25 24 24 24 23 23 22 22 21 21 21 22 21 22 22 21 20 20 19 19 18 18 19 20 21 21 20 20 20 20 21 21 21 22 22 20 19 18 18 19 19 20 23 24 24 23 19 15 14 13 13 18 23 24 24 25 27 28 27
26 26 26 26 25 25 25 25 25 25 26 26 26 27 27 27 27 27 27 27 27 27 27 27 26 27 27 26 25 25 24 24 24 23 21 20 20 20 19 19 19 19 19 19 19 17 17 17 18 18 18 19 20 19 18 20 20 21 22 23 22 20 20 22 21 19 18 18 19 21 25 27 26 24 19 12 11 13 15 17 20 24 24 23 25 27 27 25
27 27 27 27 27 27 26 26 26 26 26 27 27 27 27 27 27 27 27 26 27 26 26 26 25 26 25 23 22 22 21 21 21 20 19 19 20 21 21 21 20 20 19 19 20 20 19 20 20 19 20 21 21 20 21 22 22 22 22 22 21 20 21 22 21 19 19 21 22 24 27 29 26 21 15 11 14 19 20 20 21 22 22 22 23 23 21 18
29 28 28 28 27 27 27 26 26 26 26 26 26 26 26 26 27 27 26 26 27 26 26 25 24 24 23 21 21 21 21 22 22 22 23 23 24 25 24 24 23 22 22 24 25 24 24 24 24 24 25 25 24 24 25 24 22 21 21 21 21 22 22 22 21 18 20 24 26 27 29 28 21 16 14 16 19 21 21 21 20 19 19 19 18 15 14 14
28 28 28 27 27 26 26 26 26 26 25 26 25 25 25 26 26 26 26 27 26 26 26 25 25 24 24 25 24 23 24 25 25 25 25 26 26 27 27 27 27 27 27 27 26 26 26 25 26 27 26 24 22 22 22 21 20 21 21 21 22 22 24 22 20 20 22 25 26 23 23 21 18 18 19 19 18 17 18 17 15 15 17 16 12 11 14 18
27 27 27 26 26 25 25 26 26 25 25 25 24 24 25 25 26 26 27 27 26 26 27 26 26 27 26 27 26 25 26 27 27 27 27 27 27 28 30 29 29 29 28 26 26 26 25 25 27 27 23 20 18 18 19 20 20 20 20 20 21 22 24 22 20 20 20 20 19 17 19 19 19 21 21 18 16 14 13 12 10 13 16 14 13 15 19 22
27 27 27 26 25 25 26 26 26 25 25 24 24 24 24 24 26 27 28 29 28 27 28 27 29 30 28 29 28 27 29 30 30 29 29 29 29 30 31 30 29 29 27 26 26 24 24 26 26 21 17 15 15 16 18 20 21 20 19 19 20 21 22 19 16 15 15 17 18 19 21 22 21 22 19 14 12 11 10 11 14 17 17 16 17 19 22 24
27 27 27 26 26 26 26 26 26 26 24 24 24 24 24 25 27 28 29 32 31 29 29 30 31 31 29 30 30 29 30 31 30 30 30 31 31 30 31 31 29 28 27 27 27 25 25 25 20 16 15 15 15 16 18 20 20 20 19 19 20 20 19 17 13 12 14 17 19 20 23 25 22 16 11 9 8 11 13 15 19 21 19 19 20 22 23 23
27 27 27 26 26 26 26 26 27 26 26 25 25 25 25 26 27 28 29 33 35 32 29 30 30 30 28 27 27 27 28 29 29 29 29 30 31 30 31 30 28 27 28 27 26 26 27 23 18 17 17 17 17 16 18 20 19 18 18 20 20 17 16 17 16 14 15 17 19 21 23 21 13 3 6 9 11 13 16 19 21 23 23 22 21 22 22 22
28 27 27 27 27 27 27 28 28 27 26 26 25 26 25 26 27 28 28 30 34 32 29 30 29 26 26 25 25 26 27 28 28 28 28 29 30 30 29 28 27 26 25 24 22 24 25 20 16 17 17 16 16 16 17 17 18 18 17 17 15 13 13 15 15 15 16 16 16 16 14 7 2 5 8 15 14 13 16 20 23 24 23 21 20 20 20 20
29 29 28 28 28 29 28 28 28 28 26 25 25 25 24 25 24 25 26 27 31 32 29 28 26 22 22 23 25 26 27 28 28 28 27 28 29 29 28 28 27 24 21 19 19 22 22 17 15 16 15 15 15 16 16 14 16 18 14 11 9 10 11 12 14 15 13 12 13 14 11 9 10 12 15 17 15 15 18 21 24 23 21 19 18 18 18 18
32 31 30 30 31 30 30 30 29 28 26 25 24 24 24 23 22 22 21 18 21 23 20 19 19 17 17 18 20 22 20 19 20 22 23 23 24 25 25 26 25 21 18 17 18 20 17 12 13 14 14 15 15 14 11 10 14 15 11 9 9 10 12 13 15 16 16 19 19 18 17 18 19 14 11 13 15 17 20 22 22 20 18 17 16 17 18 18
34 34 33 33 33 32 32 31 30 28 27 25 25 25 23 21 21 20 14 7 7 7 6 10 12 12 14 14 14 17 16 13 11 12 14 15 17 18 18 21 22 19 16 18 19 16 11 7 9 10 12 13 11 9 7 9 13 14 12 11 12 13 15 17 17 18 21 21 17 17 16 14 13 10 7 12 17 19 21 20 18 16 16 16 16 17 18 18
37 36 35 35 35 35 35 34 31 29 28 26 25 25 22 20 19 17 10 5 4 3 6 10 10 11 13 13 13 14 16 14 12 12 13 13 14 14 13 14 17 17 16 17 16 13 10 8 7 9 10 9 7 7 10 12 14 15 14 14 14 15 17 18 19 21 22 17 15 19 16 11 10 10 8 11 16 18 19 17 14 13 14 15 16 18 19 18
37 37 35 35 36 37 37 36 32 30 28 26 25 24 22 20 19 14 8 8 7 6 10 12 13 13 13 15 15 14 15 15 14 14 14 14 13 13 12 11 13 14 15 14 12 12 13 11 10 12 11 9 9 12 14 15 16 16 15 15 16 17 19 19 20 21 15 10 13 17 16 14 7 2 5 9 11 9 9 9 8 9 12 14 16 18 19 19
34 34 33 34 35 35 36 35 32 30 28 27 25 24 22 21 20 13 8 11 11 9 12 14 15 18 17 17 17 16 17 17 16 15 15 16 14 14 14 12 12 13 14 16 13 12 14 14 14 15 13 13 14 15 16 16 17 16 15 17 16 14 14 14 14 11 6 5 9 9 12 16 11 4 5 10 11 6 5 9 12 15 16 17 17 19 20 20
33 33 33 34 34 32 33 31 27 26 26 25 24 25 23 19 20 19 12 10 9 8 13 17 17 20 20 20 19 18 19 18 18 17 16 16 16 15 15 13 13 13 12 14 14 12 14 15 14 13 13 15 15 16 17 18 18 19 20 19 11 5 5 5 5 3 5 8 8 6 8 12 17 17 12 13 13 10 14 15 15 15 14 15 16 18 20 19
37 35 34 36 34 31 31 29 26 25 25 26 25 25 24 16 15 24 24 16 10 7 10 15 17 19 20 21 21 19 19 19 18 18 17 18 17 16 15 14 15 14 11 10 10 10 11 12 14 15 15 16 18 19 18 19 19 19 22 20 11 3 0 3 4 2 6 9 8 8 7 8 14 15 13 17 19 19 17 12 10 11 10 13 16 17 19 20
36 34 31 31 31 30 30 28 27 27 26 27 26 24 26 20 14 20 25 24 22 15 11 11 15 19 20 20 20 19 19 19 19 20 20 20 20 20 20 19 18 16 13 12 11 11 10 10 13 15 15 15 16 17 16 16 16 15 19 20 17 12 6 4 4 3 4 7 7 8 5 5 9 7 7 11 13 13 13 12 16 18 15 15 17 18 19 21
30 30 29 28 28 29 29 29 29 30 27 28 28 29 32 30 23 22 24 25 27 24 19 16 15 17 19 20 19 19 19 19 20 22 22 23 23 23 23 21 19 18 16 14 12 11 13 14 15 15 15 14 12 12 12 14 15 14 14 18 20 20 15 10 9 10 8 7 7 8 8 10 14 15 13 10 11 13 15 18 19 17 14 15 17 18 19 21
26 27 29 30 30 28 28 29 28 26 24 25 29 35 39 36 28 25 23 22 24 25 24 22 19 18 18 19 20 21 21 21 21 22 24 25 25 26 25 22 21 21 20 19 16 13 13 14 13 14 15 16 14 13 14 16 16 15 16 19 20 19 16 13 11 12 8 6 8 10 11 14 17 20 20 15 15 15 12 12 12 10 11 14 16 19 20 21
26 28 29 30 29 26 26 26 24 22 20 23 30 37 39 37 32 27 22 19 20 24 26 24 21 19 18 19 20 23 24 23 23 23 24 23 22 24 27 26 26 26 24 23 20 18 17 15 15 15 15 16 16 16 17 20 20 18 17 17 16 14 14 11 7 5 3 3 7 11 13 14 12 14 17 14 13 12 10 12 12 11 13 15 17 19 20 21
26 28 29 29 28 27 26 24 24 24 22 23 32 37 36 35 34 31 27 22 19 22 27 25 21 19 18 18 19 22 23 25 25 24 25 24 19 18 19 21 23 24 24 23 21 20 20 17 17 18 18 17 18 18 19 22 24 22 18 16 14 11 11 10 7 3 2 2 4 9 14 16 15 15 16 13 12 13 13 13 13 13 15 16 17 19 19 20
24 26 29 30 31 31 29 25 26 27 25 27 33 36 36 36 33 31 30 28 23 22 25 25 22 20 20 20 20 21 24 27 27 26 25 24 22 20 19 18 19 19 19 20 22 22 20 15 12 14 17 17 19 21 23 24 24 22 20 19 19 17 14 14 12 7 4 3 4 6 8 14 18 18 14 9 9 11 12 12 12 14 15 14 15 17 19 20
24 27 31 32 32 31 30 29 30 30 30 32 35 36 36 36 34 32 31 29 28 26 26 26 25 24 24 24 23 22 24 26 28 28 27 24 22 21 21 20 20 19 17 18 21 23 22 19 15 13 14 17 20 22 24 25 23 23 23 23 22 21 16 15 16 17 12 5 2 4 6 14 21 18 12 8 9 12 13 12 13 15 13 12 14 16 17 19
26 29 33 32 30 30 31 32 33 34 35 36 36 37 38 36 34 33 32 32 31 30 29 28 27 26 26 26 26 26 25 26 26 26 26 26 24 22 22 20 19 18 17 18 20 22 22 22 21 20 19 20 21 21 22 23 23 24 25 25 23 20 17 12 11 19 20 12 8 7 6 16 25 21 15 14 14 14 13 14 15 15 14 14 14 16 18 21
29 31 33 33 32 31 32 33 34 35 37 37 37 38 39 38 35 31 31 33 33 32 31 29 28 28 28 28 29 29 28 28 28 27 27 28 26 25 24 22 20 19 19 19 20 22 23 23 24 27 27 24 19 18 20 20 21 23 23 24 23 21 22 17 10 14 17 14 16 12 7 17 30 28 23 22 21 18 17 18 17 16 16 17 19 23 28 32
33 32 32 34 35 33 31 32 33 35 37 37 37 39 40 41 40 34 31 31 30 30 30 28 27 28 28 28 29 30 30 29 30 33 34 33 31 30 26 22 21 20 21 21 21 22 24 24 25 27 27 25 22 21 21 21 22 24 24 26 26 25 26 26 22 19 15 13 16 9 4 16 27 27 26 25 23 23 22 21 20 18 22 25 29 35 39 42
34 33 31 31 32 31 31 32 32 34 36 36 37 39 41 43 44 42 37 33 28 26 26 27 26 26 27 28 28 30 31 29 29 31 33 34 36 35 29 26 25 25 25 25 23 23 23 24 23 19 14 15 17 17 19 23 26 28 29 30 31 31 31 30 28 22 15 17 22 13 8 19 25 25 28 27 25 26 26 25 24 25 30 34 38 42 43 44
30 30 29 29 29 29 30 30 29 29 30 32 34 36 38 39 42 41 39 36 31 26 24 25 26 26 27 28 30 31 32 31 29 29 31 33 36 36 32 29 29 30 30 30 28 27 26 26 26 20 11 10 12 9 10 17 22 25 28 29 29 30 30 28 23 16 12 15 21 20 20 25 26 26 28 28 28 29 28 28 31 35 39 42 44 45 44 43
27 27 27 29 30 31 31 30 28 28 28 28 30 32 34 36 37 37 35 34 32 29 28 27 28 29 30 31 32 32 34 34 32 30 31 32 32 34 34 32 30 30 31 32 31 30 29 29 31 30 26 25 25 19 15 15 17 20 23 24 25 26 27 26 19 15 16 15 19 28 30 25 25 28 28 27 29 31 33 36 40 43 44 45 45 44 41 39
29 30 31 30 28 29 32 32 32 32 30 29 30 31 33 34 34 33 33 33 31 29 28 28 30 31 33 34 34 35 36 35 34 34 35 34 33 32 31 30 29 30 32 33 32 31 31 31 32 33 33 33 33 29 26 24 23 24 25 27 29 28 29 30 23 21 24 20 23 35 36 29 34 39 36 36 38 39 41 43 44 44 43 42 41 39 38 38
33 33 33 32 31 31 33 33 33 31 30 30 30 31 33 34 34 35 36 35 33 31 30 31 33 34 35 36 37 37 36 35 35 36 36 35 33 31 30 30 30 32 33 33 33 33 31 31 32 33 32 32 31 29 29 30 29 28 30 33 36 35 34 34 33 34 35 30 31 40 40 37 42 44 42 42 42 42 42 41 41 40 39 39 38 37 37 38
36 36 35 35 36 38 38 37 34 32 32 32 32 34 37 38 38 38 37 35 34 34 33 35 36 35 36 37 37 39 38 36 35 35 35 34 34 34 34 33 33 34 34 34 34 33 32 31 31 30 30 30 28 28 30 31 31 33 37 39 41 40 38 36 37 39 39 38 41 43 42 43 45 42 40 39 37 37 36 36 37 37 37 38 37 36 35 34
38 38 38 37 39 40 40 39 37 37 37 36 36 40 41 39 38 37 34 33 34 34 35 37 36 35 36 36 36 39 39 37 36 35 33 33 34 35 35 35 35 35 35 34 32 31 30 28 26 27 27 27 29 30 31 31 32 34 38 41 41 39 37 38 40 39 39 41 42 42 42 45 42 36 33 31 30 33 34 34 36 36 35 35 34 33 32 31
41 41 40 40 41 41 41 42 41 39 39 39 41 43 41 39 38 36 33 33 33 33 34 34 33 32 33 34 36 38 37 36 36 35 33 34 34 33 33 35 35 35 35 33 31 30 30 28 27 25 22 24 28 27 26 28 28 31 39 44 42 40 40 42 42 40 40 41 39 37 40 40 34 28 26 27 30 33 34 34 33 32 31 31 31 31 31 31
41 43 43 43 44 44 44 43 42 41 43 44 44 42 39 38 36 33 32 32 32 33 33 32 31 30 32 34 34 34 33 34 35 34 31 32 32 32 33 34 34 34 34 33 31 30 29 28 27 23 18 20 23 22 24 22 17 25 42 46 41 40 40 39 38 38 37 36 34 33 34 32 27 25 27 29 31 32 31 31 30 30 30 29 30 30 31 32
Wind_Direction
237 245 252 258 263 268 271 274 280 283 288 293 295 299 302 303 306 307 307 307 304 302 301 300 300 299 299 297 298 297 298 298 296 299 299 299 298 292 290 284 281 286 289 295 295 294 298 302 303 301 302 304 306 307 309 313 312 311 313 324 337 333 319 250 258 272 275 276 273 276 283 289 298 305 303 304 312 312 315 328 318 301 297 297 296 291 286 283
247 253 257 260 264 267 268 272 275 279 285 288 291 294 297 299 301 302 302 302 301 300 299 298 298 298 297 296 295 294 297 299 299 302 302 300 300 291 284 280 282 288 291 294 292 293 297 299 300 300 303 305 306 308 311 312 308 307 312 322 324 310 308 297 284 279 283 288 288 287 289 295 304 307 305 308 311 312 324 335 311 294 294 290 285 278 277 279
253 257 260 263 265 267 269 271 273 277 282 284 288 290 293 295 296 297 297 297 296 295 295 294 295 294 295 295 294 296 298 299 301 303 302 301 300 291 285 287 290 293 295 296 294 298 300 301 304 302 302 302 304 309 311 311 306 306 310 316 314 306 314 306 294 294 296 301 304 303 301 304 307 304 306 310 310 318 333 327 305 304 307 295 286 280 278 280
258 260 262 264 266 268 269 270 272 276 279 281 284 287 288 290 291 292 292 292 292 291 291 291 292 292 293 295 295 298 299 301 304 301 298 297 295 292 291 292 295 297 299 300 302 304 305 308 311 307 307 305 307 314 315 311 306 307 311 314 312 305 308 309 300 304 306 307 309 309 308 307 305 303 307 308 309 323 333 315 311 321 321 312 302 297 295 292
261 263 264 265 267 268 268 269 271 273 276 279 281 283 284 285 285 285 286 287 288 288 288 288 290 291 293 294 296 299 303 307 303 295 295 295 295 296 297 300 303 305 305 306 309 309 308 311 312 309 309 310 313 318 316 309 306 307 310 310 309 303 307 315 312 311 310 308 309 311 309 306 306 306 307 307 311 323 324 316 321 324 322 319 312 306 303 301
262 264 264 264 264 265 265 267 269 271 274 276 277 279 279 280 281 281 283 283 285 286 286 287 288 290 291 292 295 298 303 306 296 292 294 293 297 302 304 307 307 308 307 307 307 306 307 308 310 308 308 311 314 316 311 305 304 304 306 307 305 304 311 319 317 316 316 314 314 312 305 304 308 305 302 305 310 315 315 322 327 326 327 322 316 313 306 300
262 262 262 261 261 261 263 265 267 269 271 273 274 275 276 276 278 279 280 281 283 284 284 285 286 289 290 290 293 293 298 302 294 293 292 292 297 301 302 302 301 302 301 301 300 299 301 303 304 302 304 309 308 308 302 300 301 301 305 306 306 308 314 319 316 318 320 316 315 308 302 311 315 303 304 310 303 302 311 325 331 332 333 324 314 313 307 296
260 260 260 260 261 261 263 264 266 268 269 271 271 272 273 274 276 277 279 280 281 282 283 283 284 287 287 288 288 287 294 296 289 290 290 291 294 295 295 295 294 295 295 294 294 295 298 300 300 299 302 304 302 300 297 297 298 300 304 305 307 311 314 314 313 318 319 313 308 302 305 317 311 300 310 320 296 299 313 325 332 332 331 328 319 309 296 288
258 258 259 260 261 262 263 265 266 267 268 269 270 271 272 272 274 275 276 278 279 280 281 282 283 284 284 286 284 285 293 289 284 286 287 288 289 289 289 290 290 290 291 292 292 295 298 299 298 298 300 299 297 297 298 298 296 298 300 299 304 308 307 306 309 316 312 305 303 299 306 313 295 298 312 315 297 305 314 323 331 329 329 329 321 308 293 286
256 257 259 260 262 263 263 264 266 267 268 268 269 270 270 271 272 273 274 276 277 278 280 281 283 283 284 284 283 285 289 284 282 283 283 284 284 284 286 286 287 289 289 290 291 293 294 295 294 294 295 294 296 297 298 296 294 295 294 295 301 301 301 305 311 314 301 302 303 292 300 303 290 297 305 303 303 308 312 321 329 328 328 323 314 306 299 290
256 257 259 260 261 262 264 265 266 267 267 267 267 268 269 270 270 271 272 273 274 276 277 279 280 281 281 280 281 285 285 281 281 280 279 280 280 282 283 283 284 286 287 287 287 288 289 289 289 289 290 290 294 295 294 292 292 293 292 294 298 296 300 310 314 310 299 304 297 280 290 296 292 296 299 301 306 310 315 321 326 326 322 312 307 306 304 295
256 257 259 260 261 262 264 265 265 266 266 266 266 267 267 268 269 270 271 272 273 274 275 277 278 278 279 278 280 284 282 280 280 279 278 278 279 281 282 282 283 283 283 283 283 284 284 284 284 283 283 285 290 291 288 287 287 290 292 294 295 295 302 312 311 302 300 303 292 280 285 288 292 295 297 302 308 315 321 325 326 320 308 302 304 304 299 292
257 258 258 260 261 262 263 264 265 265 265 266 266 267 267 268 269 270 271 272 272 272 274 275 276 277 277 278 280 282 281 281 280 280 279 279 279 280 280 281 280 280 279 279 280 281 280 280 279 278 279 281 283 281 280 281 283 287 287 289 294 298 302 307 303 297 298 298 291 289 290 290 295 296 300 308 312 317 321 325 326 310 300 299 298 297 291 288
257 258 259 260 261 263 263 264 264 264 265 266 266 267 268 268 269 271 272 272 272 273 274 275 276 277 277 278 280 281 281 282 281 281 280 279 279 278 278 278 277 277 277 277 277 277 278 277 275 276 277 277 277 277 278 279 283 284 282 285 294 297 298 300 299 298 297 291 290 295 296 295 300 300 304 312 314 315 318 324 320 305 299 295 291 288 286 285
257 258 259 260 261 262 263 263 264 265 266 266 267 267 268 269 270 272 272 273 274 274 275 275 276 277 278 279 280 280 280 281 281 281 280 279 278 276 275 275 274 275 275 275 275 274 275 275 274 274 274 275 276 276 277 280 281 280 283 290 296 295 297 299 299 299 294 288 292 297 296 295 299 300 305 313 314 312 314 319 312 302 295 290 285 282 282 285
257 258 259 260 261 262 263 264 265 266 267 268 268 269 270 271 272 272 273 274 274 275 275 275 276 277 277 278 278 278 279 279 278 278 279 279 277 275 275 274 273 274 274 274 273 274 274 273 273 271 271 272 272 272 275 277 275 278 286 293 295 295 298 299 299 298 293 291 296 297 292 291 295 298 304 310 308 306 307 305 302 295 289 285 282 280 283 288
257 258 259 260 261 262 263 265 266 267 268 268 269 270 271 272 272 273 273 274 274 274 274 273 275 275 276 276 276 276 276 275 276 276 276 276 275 274 274 274 273 272 271 270 270 272 274 273 273 272 272 272 268 268 269 269 276 286 291 292 292 292 292 292 295 295 289 288 290 290 288 289 294 300 304 307 305 306 302 297 295 288 281 278 279 282 287 293
257 259 260 261 262 263 264 264 265 266 267 267 268 269 270 271 272 272 272 272 272 273 272 272 273 273 274 275 275 274 273 272 272 273 273 273 273 274 275 275 273 270 267 267 269 273 275 275 273 270 270 268 265 265 265 271 285 290 288 285 284 281 278 281 287 288 285 285 284 285 286 289 297 303 304 312 313 306 301 299 295 284 279 281 283 287 289 292
258 259 260 261 261 261 262 262 263 263 264 265 266 267 269 269 270 270 270 270 270 271 271 271 270 270 272 273 271 269 270 270 270 271 273 273 274 274 274 273 270 267 266 268 272 274 274 272 269 267 268 270 272 274 275 281 286 281 276 273 271 271 271 275 281 286 289 289 288 289 289 292 299 300 306 317 312 302 298 296 290 284 287 289 288 286 281 282
257 257 258 258 258 259 259 260 260 261 262 263 265 266 268 269 270 270 270 269 269 270 269 270 271 269 270 270 269 270 271 270 271 272 271 272 273 273 271 269 268 268 268 270 272 272 271 268 265 269 276 279 280 279 279 279 274 268 266 264 265 268 271 277 285 292 294 291 292 294 291 291 295 300 312 318 307 292 287 287 289 298 300 291 276 267 274 289
255 255 255 256 257 257 258 259 260 261 263 265 267 267 268 269 271 271 271 269 268 269 269 270 270 268 269 270 270 270 270 269 269 269 270 270 270 269 268 267 268 269 270 271 271 271 269 265 269 279 284 282 275 271 270 268 264 263 262 262 264 267 274 283 291 295 294 290 293 293 289 290 296 305 313 310 296 282 274 275 292 304 298 282 266 272 289 302
253 254 254 255 255 256 257 258 260 261 263 265 266 268 269 270 271 272 273 272 269 268 270 270 269 269 269 269 268 267 266 267 268 268 268 267 265 265 265 265 266 267 269 269 269 268 266 269 279 286 281 268 261 260 261 259 258 259 260 264 267 271 280 288 291 288 285 287 291 291 290 291 298 305 305 296 285 279 269 266 280 289 287 272 267 282 297 304
250 252 253 254 254 255 257 258 260 261 262 264 266 267 270 271 273 274 276 276 273 269 270 270 270 270 268 267 267 266 265 265 265 264 263 262 260 261 262 263 265 266 267 267 268 267 266 274 284 281 268 259 253 251 254 255 256 258 260 263 267 272 281 283 281 277 278 286 289 291 292 294 302 301 285 278 279 277 270 265 272 278 278 272 272 285 295 300
248 250 252 253 254 255 257 259 260 262 263 266 268 270 272 274 276 278 279 280 278 273 271 271 269 268 267 265 264 263 262 261 259 258 258 258 259 258 261 264 265 265 266 269 271 269 269 277 279 267 260 255 249 245 244 250 256 259 258 258 263 271 276 279 280 277 279 284 286 293 295 296 304 266 233 281 285 273 267 262 263 267 271 274 275 281 289 296
248 250 252 254 255 256 257 259 261 263 265 267 270 272 273 275 277 280 282 283 282 278 274 273 270 268 264 260 259 257 256 256 254 254 255 256 258 260 262 264 264 265 268 269 269 268 271 276 267 256 251 246 245 242 240 249 260 263 260 259 265 271 273 275 277 276 280 281 283 298 305 296 201 184 257 289 282 263 260 257 259 264 268 271 272 276 284 292
248 250 253 255 256 257 258 260 261 263 265 267 269 271 272 274 276 279 283 285 284 282 279 274 270 266 261 255 250 250 250 253 254 254 255 254 257 260 262 263 264 264 264 263 262 264 270 269 256 246 239 238 241 242 242 248 260 264 265 263 262 265 270 273 277 278 277 273 275 289 293 269 257 263 274 278 267 253 251 254 259 263 266 266 267 274 281 288
250 251 253 255 256 258 259 259 261 263 264 265 266 267 268 270 272 276 285 291 286 284 279 266 258 255 253 245 240 240 243 250 252 251 253 254 255 257 258 259 261 260 254 249 248 259 270 262 245 238 229 231 234 236 238 240 249 257 263 266 263 274 283 281 280 278 274 277 279 280 277 270 271 275 264 247 244 246 246 251 258 261 262 261 263 270 276 283
251 252 253 255 256 258 259 258 260 261 262 263 263 263 262 261 265 270 279 288 284 286 260 232 228 234 237 232 230 228 230 238 244 246 252 254 252 252 250 250 253 253 244 238 240 252 266 248 230 227 223 226 223 217 220 226 237 246 252 258 265 279 284 282 283 280 281 285 280 274 272 266 268 271 242 228 234 243 245 248 256 258 259 262 266 270 273 279
253 253 253 255 255 255 255 255 257 258 259 259 258 257 253 252 256 258 255 242 232 225 226 223 215 218 226 224 223 224 227 236 242 246 249 249 247 246 241 238 241 239 233 235 238 239 240 230 216 214 218 227 224 221 225 226 234 243 246 250 260 271 274 277 280 279 284 281 267 270 267 253 272 274 245 231 234 240 243 245 254 261 265 270 273 273 273 276
251 251 252 252 252 251 250 250 251 253 254 252 250 247 244 246 244 235 224 225 228 231 229 223 219 220 223 225 228 231 235 239 242 241 240 239 238 234 229 225 224 225 225 228 228 224 228 229 222 221 225 233 236 237 236 235 239 244 246 253 263 269 270 273 274 275 280 270 266 276 258 240 268 298 197 215 218 224 239 246 264 276 277 278 276 275 274 273
245 248 248 248 249 246 245 247 246 246 247 244 241 239 239 242 235 221 220 233 240 245 225 215 218 222 224 230 236 241 243 244 242 239 235 233 231 224 221 217 210 208 217 226 229 229 230 230 234 238 239 237 237 238 238 236 238 243 250 258 264 271 275 271 267 261 252 260 282 279 237 225 229 212 190 196 190 195 262 276 284 286 280 276 274 274 272 268
246 250 249 248 247 240 235 239 240 240 242 239 237 235 230 230 225 217 216 228 241 241 222 217 217 219 224 230 235 239 242 244 243 239 234 230 228 225 223 221 214 210 219 230 237 244 243 238 238 241 237 231 229 229 231 234 239 244 248 249 250 276 298 270 250 234 233 258 269 241 215 222 237 248 243 212 208 255 286 283 281 283 281 278 275 273 270 264
250 252 252 248 243 238 234 234 232 233 234 231 231 226 218 216 223 222 219 219 226 226 218 217 213 214 222 229 233 235 235 238 239 235 230 226 223 221 219 221 221 221 228 235 238 251 258 250 242 239 234 229 229 233 239 245 248 249 247 240 223 187 345 256 255 274 265 268 255 225 228 248 251 255 246 233 242 264 272 269 280 295 294 282 275 269 266 257
247 247 249 245 238 236 236 233 234 235 228 219 215 209 208 216 229 227 224 225 229 231 225 213 207 211 220 227 233 237 236 236 233 229 227 224 221 220 220 221 219 222 235 247 249 248 251 254 250 247 243 238 238 243 248 250 250 252 248 240 228 216 211 232 241 229 265 290 273 229 223 254 256 254 241 232 233 240 248 266 289 297 292 279 270 262 256 249
244 241 243 241 236 237 240 239 238 231 218 210 206 201 208 219 225 228 231 230 229 231 230 222 216 214 218 225 231 234 234 235 233 229 227 228 229 230 229 226 223 227 237 243 246 243 241 249 252 249 249 247 242 237 235 236 240 240 232 227 229 231 234 247 260 258 271 303 284 236 226 252 265 269 263 247 242 251 264 277 284 286 278 269 265 258 251 243
243 240 238 238 240 242 241 234 224 213 208 207 204 206 214 223 227 231 235 232 228 230 229 226 223 218 220 227 230 230 230 232 233 231 231 235 238 240 238 235 234 236 240 243 247 246 240 243 247 245 246 245 242 239 236 234 235 231 224 222 228 235 241 248 263 270 272 284 272 251 243 252 265 273 270 263 270 275 272 276 282 279 268 264 260 255 245 235
240 240 238 238 239 233 227 222 216 218 225 219 213 216 222 227 230 232 234 231 226 226 225 223 221 220 223 226 227 228 227 229 231 230 233 237 241 244 242 242 243 244 248 251 251 248 243 246 252 249 244 241 241 243 239 235 233 229 226 227 229 236 241 240 250 280 274 256 265 259 255 254 251 263 270 271 279 280 268 272 282 275 264 258 253 247 238 232
240 240 236 236 234 227 228 234 236 240 241 228 224 228 231 233 234 234 234 232 223 221 224 223 223 226 229 228 229 229 225 226 227 229 233 235 239 243 239 240 245 245 247 247 242 241 244 251 254 246 239 240 240 237 231 228 229 228 227 229 231 235 238 228 222 248 248 239 269 261 262 264 255 256 271 275 271 271 267 266 268 262 256 251 244 239 237 239
243 238 228 229 234 235 238 241 237 235 230 225 228 232 235 237 236 233 233 234 227 221 223 224 226 231 236 238 238 231 225 226 228 230 233 234 237 242 239 237 242 241 239 238 234 236 240 246 251 242 237 236 231 226 223 221 222 224 227 235 242 248 247 235 228 227 220 221 266 268 265 271 270 271 277 271 256 260 262 258 256 257 254 244 234 234 238 243
242 237 225 223 229 233 234 231 226 222 220 225 230 232 235 239 238 234 234 235 233 230 230 231 234 237 242 244 243 237 230 230 233 233 234 234 234 239 239 237 238 236 233 231 231 234 236 240 248 249 236 226 222 223 225 224 224 229 235 240 243 244 243 243 244 245 238 219 246 268 264 269 274 278 276 262 257 261 262 259 254 248 241 230 227 233 240 247
236 236 231 228 227 226 224 221 218 213 215 226 233 232 233 238 240 239 238 238 237 235 236 238 239 241 243 244 245 242 232 227 228 231 233 233 231 233 236 235 235 234 233 230 229 231 234 238 247 251 242 231 228 231 234 232 230 233 238 239 238 240 242 247 255 249 240 228 230 240 261 268 268 272 278 279 274 264 258 259 253 243 238 238 243 253 261 268
231 231 233 236 235 232 227 222 220 215 216 226 233 233 233 235 237 237 235 236 237 237 238 240 240 240 241 243 246 246 237 228 227 228 230 232 231 234 238 238 237 236 238 238 236 238 241 242 245 250 250 245 236 229 228 225 222 222 227 234 240 247 245 238 239 248 241 232 238 241 251 264 264 268 276 279 275 269 266 260 251 246 249 257 268 278 286 290
230 229 232 236 237 236 232 227 223 220 221 229 236 238 237 235 235 234 230 231 235 237 239 240 240 240 242 244 247 249 248 244 239 237 235 233 232 233 233 234 237 240 243 245 243 240 239 235 237 245 251 248 239 230 225 219 219 225 234 242 249 253 249 242 243 249 242 233 238 240 247 259 262 268 272 273 273 275 273 263 253 259 269 276 285 292 296 297
227 229 231 232 232 233 232 231 229 228 231 237 239 240 239 237 237 237 236 235 237 238 239 240 243 245 247 249 249 250 252 253 252 252 249 244 238 234 229 232 242 248 250 251 246 239 234 229 228 236 250 253 245 237 232 231 235 242 248 253 256 256 253 249 248 246 243 245 246 243 253 257 261 267 268 268 272 274 272 265 265 277 286 291 295 298 297 296
225 227 229 231 232 232 233 234 236 238 240 243 243 242 241 239 239 239 239 239 239 240 241 243 246 250 252 253 253 252 253 253 254 256 255 248 240 237 237 244 254 256 253 249 244 239 236 232 228 225 226 239 242 232 229 237 242 246 251 254 257 258 255 250 244 230 226 243 241 237 249 257 260 264 261 260 264 265 263 266 275 285 291 294 295 295 294 295
235 234 235 237 238 239 241 241 242 242 243 244 244 242 241 241 241 241 240 241 241 241 243 244 247 251 253 253 253 252 251 251 250 250 251 249 247 247 251 257 258 252 245 241 238 236 235 235 235 236 237 244 252 256 256 251 245 243 249 254 255 255 251 246 237 224 232 242 239 243 250 253 255 260 259 257 262 263 264 273 282 287 289 289 289 291 293 294
243 243 244 244 244 246 246 244 243 244 245 244 244 246 246 246 246 245 244 246 246 246 247 247 247 248 250 251 251 251 251 251 250 249 249 250 252 254 255 254 249 242 238 237 235 235 236 238 240 243 247 251 257 260 261 260 256 252 253 256 255 252 248 246 246 247 250 248 248 255 258 255 259 266 267 265 268 271 274 278 282 283 284 285 287 290 292 294
245 246 247 246 246 249 249 248 250 251 251 250 249 252 253 252 252 252 254 256 256 254 252 250 249 247 248 250 250 251 251 250 248 249 248 248 248 247 246 243 240 239 239 238 239 240 241 243 246 248 251 253 253 254 256 259 261 261 259 261 261 257 253 254 256 258 257 253 256 262 264 263 267 270 271 271 274 278 279 279 280 282 284 287 289 291 292 294
246 247 248 247 248 251 253 256 257 256 256 256 254 256 258 257 257 258 260 259 257 256 253 250 251 251 249 249 249 249 249 246 244 245 245 244 244 244 242 240 240 241 241 241 242 242 242 246 249 249 249 251 250 252 256 259 261 262 263 263 264 262 261 261 261 261 260 258 262 266 267 267 270 273 275 277 278 278 278 280 282 285 287 289 291 293 294 295
247 248 249 249 251 254 255 256 256 255 256 255 254 258 259 257 258 260 257 252 252 255 252 248 250 253 251 251 249 249 250 251 251 251 249 246 245 245 245 243 243 243 241 240 238 237 239 242 245 247 249 252 254 255 258 259 259 260 261 261 260 261 261 262 262 264 262 262 267 268 266 268 274 279 280 277 274 276 279 283 285 286 288 290 292 293 293 294
246 248 249 249 252 253 253 254 255 255 254 252 254 258 257 256 259 259 253 250 251 253 251 250 252 252 250 249 250 252 254 255 254 254 252 249 247 246 246 246 245 244 242 241 238 238 240 241 244 248 249 252 255 256 256 256 257 259 259 259 258 259 262 263 265 268 267 268 270 265 263 271 282 284 277 274 276 281 285 286 287 288 288 289 290 290 290 291
246 247 247 247 249 250 250 251 251 250 253 255 256 257 256 258 260 254 245 245 246 246 248 250 251 250 247 247 249 253 254 253 250 249 247 246 245 244 243 243 245 246 246 244 243 242 242 243 245 244 242 248 252 253 255 259 263 261 259 261 264 266 267 269 270 271 271 270 268 264 267 278 285 279 275 279 283 286 288 288 287 286 286 287 287 288 289 291
Height
3187 3187 3188 3188 3188 3189 3189 3189 3189 3190 3190 3190 3190 3190 3190 3191 3191 3191 3191 3191 3191 3191 3191 3191 3191 3191 3191 3191 3191 3190 3190 3190 3189 3189 3189 3189 3189 3188 3188 3188 3188 3188 3187 3187 3187 3187 3186 3187 3187 3186 3186 3186 3186 3185 3185 3185 3185 3184 3185 3185 3185 3185 3185 3185 3185 3184 3183 3183 3183 3182 3181 3180 3180 3180 3179 3178 3178 3178 3178 3179 3178 3176 3176 3175 3175 3173 3172 3172
3186 3186 3187 3187 3187 3188 3188 3188 3189 3189 3189 3189 3189 3189 3190 3190 3190 3190 3190 3190 3190 3190 3189 3189 3190 3190 3190 3190 3189 3189 3189 3189 3188 3188 3188 3187 3187 3187 3187 3187 3187 3187 3186 3186 3186 3185 3185 3185 3185 3185 3185 3185 3185 3185 3184 3184 3184 3183 3183 3184 3184 3184 3184 3184 3184 3183 3182 3182 3182 3181 3181 3180 3180 3179 3178 3176 3176 3176 3176 3176 3175 3174 3174 3174 3173 3171 3170 3170
3184 3185 3185 3186 3186 3187 3187 3187 3188 3188 3188 3188 3188 3188 3188 3189 3189 3189 3189 3189 3189 3188 3188 3188 3188 3188 3188 3188 3188 3188 3188 3187 3187 3186 3186 3186 3186 3186 3186 3186 3186 3185 3185 3185 3184 3184 3184 3184 3184 3184 3184 3184 3184 3184 3184 3183 3182 3182 3182 3182 3182 3182 3183 3183 3182 3182 3181 3181 3180 3180 3180 3179 3179 3178 3176 3175 3174 3174 3175 3173 3172 3172 3173 3173 3171 3169 3169 3169
3182 3183 3184 3184 3185 3185 3186 3186 3186 3186 3187 3187 3187 3187 3187 3187 3187 3187 3187 3187 3187 3187 3187 3187 3187 3187 3187 3186 3186 3186 3186 3186 3186 3185 3185 3185 3185 3185 3185 3185 3184 3184 3184 3183 3183 3183 3183 3183 3183 3183 3183 3183 3183 3183 3182 3182 3181 3181 3181 3181 3181 3181 3181 3181 3181 3181 3180 3179 3178 3178 3177 3177 3177 3176 3175 3174 3172 3173 3173 3172 3171 3171 3171 3171 3170 3169 3168 3167
3181 3181 3182 3182 3183 3183 3184 3184 3184 3185 3185 3185 3185 3185 3185 3186 3186 3186 3186 3186 3186 3185 3185 3185 3185 3185 3185 3185 3185 3184 3184 3185 3184 3184 3184 3184 3184 3184 3183 3183 3183 3183 3182 3182 3182 3182 3182 3182 3182 3182 3182 3182 3181 3181 3180 3180 3179 3179 3180 3180 3179 3179 3179 3179 3179 3178 3178 3177 3177 3176 3175 3174 3174 3174 3173 3173 3171 3171 3170 3170 3170 3169 3169 3168 3168 3167 3166 3165
3179 3180 3180 3181 3181 3182 3182 3182 3183 3183 3183 3183 3183 3184 3184 3184 3184 3184 3184 3184 3184 3183 3183 3183 3183 3183 3183 3183 3183 3183 3183 3183 3183 3183 3183 3182 3182 3182 3182 3181 3181 3181 3181 3181 3181 3181 3180 3180 3180 3180 3180 3180 3179 3179 3179 3178 3177 3177 3177 3178 3177 3177 3177 3177 3177 3176 3176 3175 3174 3174 3173 3172 3172 3171 3171 3171 3170 3170 3169 3168 3168 3168 3167 3167 3166 3165 3164 3163
3178 3178 3179 3179 3180 3180 3180 3181 3181 3181 3181 3182 3182 3182 3182 3182 3182 3182 3182 3182 3182 3182 3181 3181 3181 3181 3181 3181 3181 3181 3182 3182 3181 3181 3181 3181 3181 3180 3180 3180 3180 3180 3179 3179 3179 3179 3179 3179 3178 3178 3178 3178 3178 3178 3177 3176 3175 3175 3175 3175 3175 3175 3174 3174 3173 3173 3173 3172 3172 3171 3170 3171 3170 3168 3168 3169 3169 3168 3168 3167 3166 3166 3165 3165 3164 3162 3161 3160
3176 3176 3177 3177 3178 3178 3179 3179 3179 3179 3180 3180 3180 3180 3180 3180 3180 3180 3180 3180 3180 3180 3179 3179 3180 3179 3179 3179 3179 3180 3180 3180 3180 3179 3179 3179 3179 3179 3179 3179 3178 3178 3178 3178 3177 3177 3177 3177 3177 3176 3176 3176 3176 3176 3175 3175 3174 3173 3172 3172 3172 3172 3172 3172 3171 3171 3171 3170 3170 3169 3168 3169 3168 3166 3166 3167 3167 3166 3166 3166 3164 3164 3163 3162 3161 3159 3157 3156
3174 3174 3175 3176 3176 3176 3177 3177 3177 3177 3178 3178 3178 3178 3178 3178 3178 3178 3178 3178 3178 3178 3177 3177 3178 3177 3177 3177 3177 3178 3178 3178 3178 3178 3178 3177 3177 3177 3177 3177 3177 3176 3176 3176 3176 3176 3176 3175 3175 3174 3174 3174 3174 3174 3173 3173 3172 3171 3171 3170 3170 3170 3170 3170 3170 3170 3169 3168 3167 3166 3166 3167 3166 3165 3165 3165 3165 3164 3164 3164 3162 3161 3160 3159 3157 3155 3154 3154
3172 3172 3173 3173 3174 3174 3174 3175 3175 3175 3176 3175 3175 3175 3175 3175 3175 3176 3176 3176 3176 3175 3175 3175 3176 3175 3175 3175 3175 3176 3177 3176 3176 3176 3176 3176 3175 3175 3175 3175 3175 3174 3174 3174 3174 3174 3174 3174 3173 3173 3172 3172 3171 3172 3171 3171 3170 3169 3169 3168 3169 3169 3168 3168 3168 3168 3167 3166 3165 3164 3164 3165 3164 3164 3164 3163 3162 3162 3162 3162 3160 3159 3157 3155 3153 3152 3151 3151
3169 3170 3170 3171 3171 3171 3172 3172 3173 3173 3173 3173 3173 3173 3173 3173 3173 3173 3173 3174 3174 3173 3173 3173 3173 3173 3173 3173 3173 3173 3174 3174 3174 3174 3174 3174 3173 3173 3173 3173 3173 3172 3172 3171 3171 3172 3172 3171 3171 3171 3170 3169 3169 3169 3169 3168 3168 3167 3166 3166 3167 3167 3167 3167 3166 3165 3164 3164 3164 3162 3162 3163 3162 3162 3162 3161 3160 3159 3159 3159 3158 3156 3154 3151 3150 3149 3149 3148
3167 3167 3168 3168 3168 3169 3170 3170 3170 3171 3171 3171 3170 3170 3171 3171 3171 3171 3171 3171 3171 3171 3171 3171 3171 3171 3171 3171 3171 3171 3172 3172 3172 3172 3172 3172 3171 3171 3171 3171 3170 3170 3169 3169 3169 3169 3169 3169 3169 3168 3168 3168 3167 3167 3166 3166 3166 3165 3164 3163 3164 3164 3165 3165 3164 3163 3162 3162 3161 3160 3160 3161 3161 3160 3159 3159 3158 3156 3156 3156 3155 3153 3150 3148 3147 3146 3146 3145
3164 3165 3165 3165 3166 3167 3167 3168 3168 3168 3168 3168 3168 3168 3168 3168 3168 3168 3169 3169 3169 3169 3169 3169 3169 3169 3168 3168 3169 3169 3169 3169 3170 3170 3170 3169 3169 3169 3168 3168 3168 3168 3167 3167 3167 3167 3167 3167 3166 3166 3166 3166 3165 3165 3164 3164 3164 3164 3163 3161 3162 3162 3163 3164 3162 3161 3161 3160 3159 3158 3157 3157 3158 3158 3157 3156 3155 3153 3153 3153 3153 3150 3148 3145 3144 3143 3143 3142
3161 3162 3162 3163 3163 3164 3164 3165 3165 3165 3166 3166 3166 3166 3166 3166 3166 3166 3166 3166 3166 3166 3166 3166 3166 3166 3165 3166 3166 3166 3166 3166 3166 3167 3167 3167 3166 3166 3166 3166 3165 3165 3165 3164 3164 3164 3164 3164 3164 3164 3164 3164 3163 3163 3162 3162 3162 3162 3161 3160 3161 3159 3160 3161 3161 3159 3158 3157 3157 3156 3154 3153 3155 3155 3154 3153 3152 3150 3150 3151 3150 3147 3145 3143 3141 3140 3139 3139
3158 3159 3159 3160 3161 3161 3161 3162 3162 3163 3163 3163 3163 3163 3163 3163 3163 3164 3163 3163 3163 3163 3163 3163 3163 3163 3162 3163 3163 3163 3163 3163 3163 3163 3163 3164 3163 3163 3163 3163 3163 3162 3162 3162 3162 3162 3162 3162 3162 3162 3162 3161 3161 3160 3160 3160 3160 3160 3159 3159 3159 3157 3157 3158 3159 3157 3156 3155 3154 3153 3151 3150 3151 3151 3151 3151 3150 3148 3148 3148 3147 3144 3142 3140 3139 3137 3136 3136
3155 3155 3156 3157 3158 3158 3158 3159 3159 3160 3160 3160 3160 3160 3160 3160 3161 3161 3160 3161 3160 3160 3160 3160 3160 3160 3159 3160 3160 3160 3161 3160 3160 3160 3160 3160 3160 3160 3160 3160 3160 3160 3160 3159 3159 3159 3159 3159 3159 3160 3160 3160 3159 3158 3158 3158 3158 3158 3157 3156 3156 3155 3154 3155 3156 3156 3153 3152 3151 3150 3148 3147 3148 3148 3149 3149 3148 3147 3146 3145 3144 3140 3139 3138 3136 3134 3133 3134
3151 3152 3153 3154 3154 3155 3155 3156 3156 3156 3157 3157 3157 3157 3157 3157 3157 3157 3157 3157 3157 3157 3157 3157 3157 3157 3156 3157 3157 3157 3158 3157 3157 3157 3157 3158 3157 3157 3157 3157 3157 3157 3157 3157 3157 3157 3157 3157 3157 3157 3158 3158 3157 3157 3157 3156 3156 3156 3155 3154 3153 3153 3152 3152 3153 3153 3152 3150 3149 3147 3145 3144 3145 3146 3146 3147 3146 3145 3143 3142 3141 3138 3136 3135 3134 3133 3132 3132
3148 3149 3150 3150 3151 3151 3152 3152 3153 3153 3153 3153 3154 3154 3154 3154 3154 3154 3154 3154 3154 3154 3154 3154 3154 3153 3153 3154 3154 3154 3154 3154 3154 3155 3155 3155 3155 3154 3154 3154 3154 3154 3155 3154 3154 3154 3155 3154 3155 3155 3155 3155 3155 3155 3154 3153 3154 3154 3153 3151 3151 3151 3150 3149 3150 3150 3149 3147 3146 3145 3143 3142 3143 3143 3143 3144 3143 3141 3140 3139 3138 3135 3134 3133 3132 3132 3131 3131
3145 3146 3146 3147 3148 3148 3148 3149 3149 3149 3150 3150 3150 3151 3151 3150 3150 3150 3151 3151 3151 3151 3150 3150 3151 3151 3150 3151 3151 3151 3152 3152 3152 3152 3152 3152 3152 3151 3151 3151 3151 3151 3152 3152 3151 3152 3152 3151 3151 3152 3152 3152 3153 3153 3152 3152 3152 3151 3150 3149 3148 3147 3147 3147 3147 3147 3146 3144 3143 3143 3141 3140 3140 3141 3141 3141 3139 3137 3136 3136 3134 3133 3132 3132 3131 3130 3130 3130
3142 3142 3143 3144 3144 3145 3145 3145 3146 3146 3146 3147 3147 3148 3147 3147 3147 3147 3147 3147 3147 3147 3147 3147 3148 3148 3147 3147 3148 3149 3149 3149 3148 3149 3149 3149 3149 3148 3148 3148 3148 3148 3149 3149 3148 3148 3148 3148 3147 3148 3150 3150 3151 3150 3149 3149 3149 3148 3147 3146 3145 3144 3143 3144 3145 3144 3144 3141 3140 3140 3138 3138 3138 3138 3138 3138 3136 3134 3133 3132 3131 3131 3130 3129 3129 3128 3128 3127
3138 3139 3139 3140 3141 3141 3141 3142 3142 3143 3143 3143 3144 3144 3144 3144 3144 3144 3144 3144 3144 3144 3143 3144 3144 3144 3145 3144 3145 3146 3145 3145 3145 3145 3145 3146 3145 3144 3144 3144 3144 3145 3145 3145 3145 3145 3145 3144 3144 3146 3148 3148 3148 3148 3147 3146 3146 3145 3144 3144 3143 3142 3140 3141 3142 3142 3141 3139 3138 3137 3136 3136 3136 3136 3135 3134 3133 3131 3131 3130 3130 3129 3129 3128 3127 3126 3125 3125
3134 3135 3136 3137 3137 3138 3138 3138 3139 3140 3140 3141 3141 3141 3141 3142 3141 3140 3140 3139 3141 3141 3140 3141 3140 3140 3142 3141 3141 3142 3141 3141 3142 3142 3142 3141 3141 3141 3139 3140 3141 3141 3142 3142 3141 3142 3141 3140 3143 3144 3144 3144 3145 3145 3144 3143 3143 3142 3142 3141 3140 3140 3139 3139 3140 3140 3139 3137 3136 3135 3133 3133 3134 3134 3133 3132 3131 3130 3129 3129 3128 3128 3127 3126 3125 3125 3124 3123
3130 3131 3132 3133 3134 3134 3135 3135 3136 3136 3137 3138 3138 3139 3139 3139 3138 3137 3136 3134 3135 3137 3137 3137 3136 3135 3137 3136 3137 3138 3137 3137 3138 3137 3138 3137 3137 3137 3135 3136 3138 3138 3138 3138 3138 3138 3137 3139 3141 3141 3141 3141 3142 3142 3142 3141 3140 3140 3140 3139 3138 3138 3138 3138 3138 3138 3137 3136 3134 3133 3131 3130 3132 3132 3130 3130 3130 3129 3128 3128 3127 3125 3125 3124 3124 3124 3123 3123
3126 3127 3129 3129 3130 3131 3131 3132 3132 3133 3134 3135 3135 3136 3136 3136 3135 3134 3133 3130 3128 3132 3133 3132 3131 3131 3132 3132 3133 3133 3132 3132 3133 3133 3134 3133 3132 3133 3132 3133 3134 3134 3135 3135 3135 3134 3134 3137 3139 3138 3137 3138 3138 3139 3139 3138 3138 3138 3138 3137 3136 3137 3137 3136 3136 3136 3135 3134 3132 3131 3129 3127 3128 3128 3128 3128 3129 3127 3126 3125 3124 3123 3122 3122 3122 3122 3122 3122
3123 3124 3125 3126 3127 3127 3128 3129 3129 3130 3131 3132 3132 3133 3133 3132 3132 3131 3130 3127 3122 3125 3129 3127 3126 3126 3127 3128 3128 3128 3127 3127 3128 3129 3130 3129 3129 3129 3130 3130 3130 3131 3133 3133 3132 3130 3131 3134 3135 3134 3135 3135 3135 3136 3137 3137 3136 3136 3135 3135 3135 3135 3136 3135 3134 3134 3133 3132 3130 3130 3128 3124 3125 3127 3126 3126 3126 3125 3123 3121 3120 3120 3120 3121 3121 3121 3121 3121
3120 3120 3121 3122 3123 3123 3125 3125 3126 3127 3128 3129 3129 3130 3130 3129 3129 3129 3128 3124 3117 3119 3123 3122 3121 3122 3122 3124 3123 3124 3124 3123 3124 3125 3126 3126 3126 3126 3127 3127 3127 3128 3130 3130 3129 3127 3128 3131 3131 3131 3132 3132 3133 3133 3134 3135 3135 3134 3133 3134 3134 3134 3134 3134 3133 3132 3131 3129 3128 3130 3129 3123 3121 3124 3124 3123 3122 3121 3119 3118 3117 3117 3118 3119 3120 3120 3120 3119
3116 3117 3118 3118 3119 3120 3121 3121 3122 3123 3125 3126 3126 3126 3127 3127 3127 3127 3127 3123 3115 3114 3117 3117 3117 3118 3118 3119 3119 3120 3121 3120 3121 3121 3122 3123 3123 3123 3124 3123 3124 3125 3126 3127 3126 3124 3125 3128 3128 3128 3129 3130 3130 3130 3131 3133 3133 3132 3132 3132 3133 3133 3132 3131 3131 3130 3128 3127 3126 3127 3128 3122 3117 3119 3120 3120 3119 3117 3116 3115 3115 3116 3117 3118 3118 3118 3118 3118
3112 3113 3114 3114 3115 3116 3117 3117 3119 3120 3121 3122 3123 3124 3124 3124 3125 3125 3127 3124 3114 3110 3114 3114 3115 3115 3115 3117 3117 3118 3118 3118 3119 3119 3119 3120 3120 3120 3121 3121 3121 3122 3123 3123 3123 3123 3124 3125 3125 3126 3127 3127 3128 3129 3130 3130 3130 3130 3131 3131 3131 3131 3131 3129 3129 3128 3126 3124 3122 3123 3125 3121 3114 3114 3117 3117 3116 3114 3113 3113 3114 3115 3116 3116 3116 3116 3116 3116
3108 3109 3110 3111 3111 3112 3112 3113 3115 3117 3118 3119 3120 3120 3121 3122 3122 3122 3126 3122 3111 3109 3112 3112 3113 3114 3114 3115 3115 3115 3116 3116 3117 3117 3118 3118 3118 3118 3118 3118 3119 3119 3120 3120 3121 3122 3123 3123 3124 3124 3125 3125 3127 3127 3128 3129 3129 3129 3130 3130 3130 3130 3129 3128 3127 3126 3125 3122 3118 3119 3122 3118 3112 3111 3114 3114 3113 3112 3112 3113 3114 3114 3115 3115 3115 3115 3115 3115
3103 3104 3106 3106 3107 3107 3108 3109 3112 3114 3114 3116 3116 3117 3118 3118 3119 3121 3120 3114 3107 3108 3110 3110 3112 3112 3112 3113 3113 3113 3114 3114 3115 3115 3116 3116 3116 3116 3116 3117 3117 3118 3118 3119 3119 3121 3121 3122 3122 3123 3124 3125 3125 3126 3126 3126 3126 3127 3128 3128 3129 3128 3127 3127 3125 3125 3124 3118 3114 3116 3117 3117 3114 3110 3110 3111 3111 3111 3111 3112 3113 3113 3114 3114 3114 3114 3113 3113
3098 3100 3101 3101 3102 3103 3103 3105 3108 3110 3110 3112 3112 3113 3114 3114 3116 3115 3110 3105 3105 3106 3106 3108 3109 3109 3110 3111 3111 3112 3112 3112 3113 3113 3113 3114 3114 3114 3114 3115 3116 3117 3117 3117 3118 3119 3119 3120 3120 3121 3122 3123 3124 3124 3124 3124 3124 3125 3126 3126 3127 3126 3125 3124 3123 3123 3122 3116 3112 3114 3114 3115 3113 3110 3109 3110 3109 3110 3111 3112 3112 3112 3113 3113 3113 3112 3111 3111
3094 3095 3096 3096 3098 3099 3099 3101 3104 3106 3106 3107 3108 3109 3110 3111 3109 3104 3100 3102 3105 3103 3102 3105 3106 3107 3108 3109 3109 3110 3110 3111 3111 3112 3112 3112 3112 3112 3113 3114 3114 3115 3115 3115 3116 3116 3117 3117 3118 3119 3120 3121 3122 3122 3122 3122 3122 3123 3123 3124 3126 3126 3125 3123 3121 3121 3119 3113 3112 3113 3112 3112 3110 3108 3109 3109 3108 3109 3110 3111 3111 3111 3111 3111 3111 3110 3109 3109
3089 3090 3091 3091 3093 3095 3096 3098 3100 3101 3102 3103 3104 3104 3106 3105 3098 3094 3097 3101 3101 3099 3099 3102 3103 3105 3106 3106 3107 3108 3109 3109 3110 3110 3110 3110 3111 3111 3111 3112 3112 3112 3113 3113 3114 3114 3114 3114 3115 3116 3117 3118 3119 3119 3119 3120 3120 3120 3120 3121 3123 3125 3126 3122 3120 3119 3115 3111 3111 3112 3112 3110 3106 3105 3107 3107 3107 3108 3108 3110 3110 3109 3109 3109 3108 3108 3107 3107
3084 3085 3086 3086 3088 3090 3092 3094 3096 3097 3098 3098 3099 3100 3100 3096 3089 3089 3094 3097 3097 3097 3098 3099 3101 3102 3103 3104 3106 3106 3107 3108 3108 3109 3109 3108 3109 3109 3109 3109 3110 3111 3111 3112 3112 3112 3112 3111 3112 3114 3114 3115 3115 3116 3117 3117 3118 3117 3117 3119 3119 3119 3120 3118 3116 3115 3112 3110 3111 3111 3110 3106 3103 3104 3105 3105 3106 3107 3107 3108 3108 3107 3107 3107 3106 3106 3105 3104
3079 3080 3082 3083 3084 3086 3087 3090 3092 3093 3094 3093 3094 3094 3090 3086 3085 3088 3090 3092 3094 3095 3096 3097 3098 3099 3100 3102 3103 3105 3106 3107 3107 3107 3107 3106 3106 3106 3106 3107 3108 3109 3109 3110 3110 3110 3109 3108 3109 3111 3112 3112 3113 3113 3115 3115 3115 3115 3115 3116 3115 3115 3115 3114 3113 3112 3111 3111 3109 3107 3106 3103 3101 3102 3103 3104 3105 3105 3106 3106 3106 3105 3105 3105 3104 3103 3103 3103
3074 3076 3077 3079 3080 3082 3084 3085 3087 3089 3089 3090 3089 3085 3080 3080 3083 3086 3087 3089 3091 3092 3093 3094 3095 3096 3097 3099 3100 3102 3103 3104 3105 3105 3105 3105 3105 3104 3104 3105 3106 3106 3106 3107 3108 3107 3106 3106 3107 3109 3109 3110 3111 3111 3112 3113 3113 3113 3112 3112 3112 3112 3113 3113 3111 3110 3111 3110 3105 3102 3102 3101 3100 3100 3100 3102 3103 3103 3104 3103 3103 3104 3103 3103 3102 3101 3101 3100
3070 3072 3073 3075 3076 3078 3079 3081 3083 3084 3085 3087 3085 3080 3077 3080 3083 3084 3086 3088 3088 3089 3090 3090 3091 3092 3093 3095 3096 3098 3100 3101 3102 3103 3103 3103 3102 3100 3101 3102 3102 3103 3104 3105 3106 3105 3104 3103 3104 3106 3106 3107 3108 3109 3109 3110 3110 3110 3110 3110 3111 3111 3111 3111 3111 3109 3110 3109 3103 3098 3098 3098 3098 3097 3097 3099 3101 3101 3102 3101 3101 3101 3101 3101 3100 3100 3099 3098
3066 3068 3069 3071 3072 3073 3075 3077 3079 3080 3082 3082 3079 3077 3077 3079 3081 3083 3084 3085 3086 3087 3087 3087 3088 3089 3089 3091 3093 3095 3097 3098 3099 3100 3100 3100 3098 3097 3098 3098 3098 3099 3101 3102 3102 3102 3102 3102 3102 3102 3103 3104 3105 3105 3106 3107 3107 3107 3108 3109 3109 3109 3108 3109 3109 3108 3108 3107 3102 3097 3096 3095 3095 3094 3095 3097 3098 3099 3099 3099 3099 3099 3098 3098 3098 3098 3097 3096
3062 3064 3065 3066 3068 3069 3071 3073 3075 3076 3077 3076 3074 3074 3075 3076 3078 3081 3082 3083 3084 3084 3084 3084 3085 3086 3087 3088 3090 3092 3093 3094 3095 3097 3096 3096 3095 3094 3095 3095 3095 3096 3098 3099 3099 3100 3100 3100 3099 3099 3100 3101 3101 3102 3102 3103 3104 3105 3106 3106 3106 3106 3106 3106 3105 3104 3104 3104 3101 3097 3095 3092 3091 3092 3093 3095 3096 3097 3096 3096 3097 3096 3096 3096 3096 3095 3095 3094
3059 3060 3061 3062 3063 3065 3067 3069 3070 3071 3070 3069 3069 3070 3070 3071 3074 3077 3079 3080 3081 3081 3081 3082 3083 3083 3084 3085 3087 3089 3090 3091 3092 3093 3093 3093 3092 3092 3092 3092 3092 3094 3095 3096 3097 3097 3098 3098 3097 3097 3097 3098 3098 3098 3099 3100 3101 3102 3103 3103 3103 3103 3103 3103 3101 3100 3100 3101 3099 3098 3093 3089 3089 3090 3090 3092 3094 3094 3094 3095 3094 3094 3093 3093 3093 3093 3092 3092
3055 3056 3057 3059 3060 3061 3064 3065 3064 3065 3064 3064 3064 3066 3067 3068 3070 3073 3076 3077 3077 3078 3078 3079 3080 3080 3081 3083 3084 3085 3086 3087 3088 3089 3089 3089 3089 3089 3088 3089 3090 3091 3092 3093 3094 3095 3095 3096 3095 3094 3094 3094 3094 3095 3096 3097 3098 3099 3099 3099 3099 3100 3100 3100 3098 3096 3097 3097 3096 3095 3091 3087 3087 3087 3087 3089 3091 3091 3092 3093 3092 3091 3091 3091 3090 3090 3089 3088
3050 3051 3053 3055 3056 3058 3060 3060 3059 3060 3059 3059 3061 3062 3064 3065 3066 3069 3071 3073 3073 3073 3074 3075 3075 3076 3078 3079 3081 3082 3083 3083 3085 3085 3084 3085 3086 3086 3085 3086 3087 3088 3089 3091 3091 3092 3093 3093 3093 3092 3091 3092 3092 3092 3093 3094 3094 3095 3095 3096 3096 3096 3097 3097 3094 3093 3094 3093 3092 3092 3089 3085 3085 3086 3086 3087 3087 3088 3089 3090 3089 3089 3088 3088 3087 3086 3085 3085
3046 3047 3048 3050 3051 3053 3055 3054 3055 3055 3055 3056 3058 3059 3061 3061 3062 3064 3066 3068 3069 3069 3069 3070 3071 3072 3074 3076 3078 3079 3079 3080 3080 3080 3080 3080 3081 3082 3082 3083 3084 3085 3086 3087 3088 3089 3090 3090 3090 3088 3088 3089 3089 3089 3090 3091 3091 3091 3091 3092 3092 3092 3092 3092 3091 3090 3091 3090 3090 3090 3086 3082 3083 3085 3084 3084 3084 3086 3086 3086 3086 3085 3084 3084 3083 3082 3082 3080
3041 3043 3044 3045 3046 3048 3048 3049 3050 3051 3052 3053 3054 3055 3057 3057 3058 3060 3062 3063 3065 3065 3065 3066 3067 3069 3071 3072 3074 3074 3076 3076 3076 3076 3077 3077 3077 3078 3079 3079 3081 3082 3082 3083 3084 3085 3085 3086 3086 3086 3087 3086 3085 3086 3086 3087 3088 3087 3087 3088 3088 3088 3088 3088 3087 3088 3087 3086 3087 3088 3082 3079 3082 3083 3082 3082 3083 3084 3083 3082 3081 3081 3080 3079 3078 3078 3077 3075
3035 3037 3038 3040 3041 3042 3043 3045 3047 3048 3049 3050 3050 3051 3053 3053 3054 3056 3058 3059 3061 3061 3062 3062 3064 3066 3067 3068 3069 3070 3071 3072 3072 3072 3072 3073 3073 3074 3075 3076 3077 3077 3078 3079 3080 3080 3081 3081 3080 3081 3082 3081 3079 3080 3081 3082 3084 3084 3083 3084 3084 3084 3084 3083 3083 3084 3083 3082 3083 3082 3077 3077 3080 3080 3079 3079 3080 3081 3080 3078 3077 3076 3075 3075 3074 3073 3072 3070
3031 3032 3033 3035 3036 3038 3039 3041 3043 3043 3045 3046 3046 3047 3049 3049 3050 3053 3054 3055 3056 3057 3058 3059 3060 3062 3063 3064 3065 3065 3066 3067 3068 3067 3067 3068 3069 3070 3071 3072 3072 3073 3074 3075 3076 3076 3076 3075 3075 3075 3074 3074 3074 3076 3077 3079 3080 3080 3080 3081 3081 3081 3080 3079 3079 3079 3080 3080 3078 3075 3074 3076 3078 3077 3076 3076 3077 3077 3076 3075 3074 3073 3072 3071 3070 3068 3067 3065
3026 3027 3028 3031 3032 3033 3034 3036 3037 3038 3040 3042 3042 3043 3044 3045 3047 3049 3049 3050 3052 3053 3054 3055 3056 3057 3057 3059 3060 3061 3061 3063 3063 3063 3063 3063 3064 3066 3067 3067 3068 3069 3070 3071 3071 3072 3071 3070 3071 3071 3071 3071 3073 3074 3075 3075 3075 3076 3077 3077 3078 3077 3076 3074 3074 3075 3077 3076 3071 3070 3073 3073 3073 3074 3074 3073 3073 3073 3072 3071 3070 3069 3067 3066 3065 3064 3062 3061
3022 3022 3024 3026 3027 3027 3028 3030 3032 3034 3036 3037 3038 3039 3040 3041 3042 3043 3044 3046 3048 3049 3050 3050 3050 3051 3053 3055 3056 3056 3057 3058 3058 3057 3058 3059 3060 3061 3062 3063 3063 3064 3065 3066 3066 3067 3067 3066 3066 3067 3068 3069 3070 3070 3071 3071 3071 3072 3072 3072 3072 3072 3071 3070 3070 3072 3072 3069 3066 3068 3070 3068 3067 3069 3070 3069 3069 3067 3067 3066 3065 3064 3062 3061 3060 3059 3058 3056
3017 3018 3020 3021 3021 3022 3023 3025 3028 3030 3031 3032 3033 3033 3034 3035 3036 3038 3040 3041 3041 3043 3044 3043 3044 3046 3048 3051 3053 3052 3052 3052 3051 3051 3053 3054 3056 3057 3057 3058 3059 3059 3060 3061 3062 3063 3063 3062 3063 3064 3064 3065 3067 3067 3067 3067 3067 3067 3066 3066 3065 3065 3065 3065 3066 3066 3066 3064 3063 3065 3065 3062 3062 3064 3064 3065 3064 3061 3060 3060 3059 3058 3057 3056 3054 3053 3052 3051
3012 3013 3015 3016 3016 3018 3019 3020 3022 3023 3025 3026 3026 3026 3028 3029 3030 3033 3034 3035 3035 3036 3037 3037 3039 3042 3044 3046 3047 3046 3046 3047 3047 3048 3050 3050 3051 3052 3052 3053 3054 3055 3055 3056 3057 3058 3059 3059 3059 3060 3060 3062 3062 3063 3064 3064 3062 3062 3061 3059 3059 3059 3060 3059 3059 3060 3060 3059 3058 3060 3058 3055 3057 3060 3059 3058 3057 3056 3055 3055 3054 3053 3052 3051 3049 3048 3047 3047
3007 3008 3010 3010 3011 3013 3013 3014 3016 3017 3018 3019 3018 3020 3022 3023 3025 3028 3028 3029 3030 3031 3032 3033 3036 3039 3040 3041 3041 3041 3042 3044 3043 3044 3045 3045 3046 3047 3048 3048 3050 3050 3051 3052 3053 3054 3055 3056 3056 3057 3057 3057 3058 3060 3060 3059 3059 3057 3053 3050 3052 3054 3054 3053 3054 3055 3054 3052 3053 3055 3052 3050 3053 3055 3053 3052 3052 3051 3050 3049 3048 3047 3047 3046 3045 3044 3043 3043
3002 3003 3004 3005 3006 3007 3007 3009 3011 3011 3010 3011 3013 3015 3018 3019 3021 3024 3024 3024 3026 3026 3028 3030 3033 3034 3035 3035 3036 3038 3040 3040 3038 3039 3040 3040 3041 3043 3043 3044 3046 3046 3047 3049 3049 3050 3051 3052 3052 3054 3054 3054 3055 3057 3056 3057 3057 3050 3043 3044 3049 3050 3049 3049 3049 3049 3049 3048 3048 3047 3045 3046 3048 3049 3047 3047 3047 3046 3044 3043 3042 3041 3042 3042 3041 3040 3039 3038